Simultaneous Nadir Overpasses (SNOs) Predictions

Prediction of SNOs between AQUA and METOP-A Satellite Orbit:

Table of predicted SNOs for the next 14.0 days since TLE Epoch: 3/27/2021
Index Date (AQUA) Time (AQUA) Lat,Lon (AQUA) SZA (AQUA ) Date (METOP-A) Time (METOP-A) Lat,Lon (METOP-A) SZA (METOP-A ) Distance(km) Time Diff (sec)
1 03/27/2021 02:57:59 77.22, 120.18 75.06 03/27/2021 02:57:46 77.23, 120.32 75.06 3.62 13
2 03/27/2021 03:47:25 -77.25, -72.27 104.93 03/27/2021 03:48:27 -77.24, -72.30 104.95 0.85 62
3 03/29/2021 21:42:43 -77.11, 19.42 106.19 03/29/2021 21:41:31 -77.02, 18.49 106.18 24.96 72
4 03/29/2021 22:32:13 77.22,-173.37 73.94 03/29/2021 22:32:07 77.21,-173.43 73.94 1.71 6
5 03/29/2021 23:21:39 -77.24, -5.82 106.05 03/29/2021 23:22:47 -77.27, -5.86 106.04 3.14 68
6 04/01/2021 17:17:00 -77.20, 85.50 107.17 04/01/2021 17:15:49 -77.18, 85.46 107.17 2.62 71
7 04/01/2021 18:06:28 77.22,-106.96 72.85 04/01/2021 18:06:28 77.23,-107.00 72.86 1.30 0
8 04/01/2021 18:55:55 -77.29, 60.43 107.09 04/01/2021 18:57:08 -77.29, 60.58 107.12 3.63 73
9 04/04/2021 12:51:15 -77.21, 151.90 108.25 04/04/2021 12:50:10 -77.20, 151.88 108.24 1.24 65
10 04/04/2021 13:40:43 77.24, -40.57 71.78 04/04/2021 13:40:49 77.25, -40.59 71.78 1.12 6
11 04/04/2021 14:30:15 -77.53, 125.91 107.89 04/04/2021 14:31:24 -77.53, 127.94 108.03 48.60 69
12 04/07/2021 08:25:29 -77.23,-141.72 109.30 04/07/2021 08:24:30 -77.22,-141.70 109.30 1.21 59
13 04/07/2021 09:14:57 77.26, 25.79 70.73 04/07/2021 09:15:09 77.26, 25.81 70.72 0.54 12



Historial Predications of SNOs between AQUA and METOP-A
